Probability
0 0 0 0 0 0 0 0 0 1 3 3 2 2 4 3 2 1 2 3 4 5 6 6 6 7 6 4 2 3 3 3 2 1 0 1 2 3 4 5 7 7 6 6
0 0 0 0 0 0 0 1 1 2 3 3 2 4 6 6 5 4 3 4 5 6 7 8 8 7 5 3 2 2 2 2 2 1 0 2 4 4 4 4 5 6 6 6
0 0 0 0 0 0 1 3 3 3 3 3 3 5 7 8 8 6 6 6 7 7 8 8 7 5 3 1 1 1 1 1 1 1 1 3 5 6 6 5 4 5 6 6
0 0 0 1 1 1 3 5 4 3 3 4 5 6 7 7 8 7 6 7 8 9 9 8 6 4 2 1 0 0 0 1 2 3 4 6 7 8 8 7 7 7 7 8
0 0 0 1 2 3 5 5 4 4 5 7 8 7 5 5 7 7 6 7 8 9 11 10 8 7 4 2 1 0 0 2 4 6 7 8 9 9 10 10 10 9 9 9
0 0 0 1 3 5 5 4 4 6 9 10 9 6 5 6 8 9 8 8 9 10 11 11 11 10 8 5 3 1 1 4 7 8 9 11 12 11 12 12 11 10 10 9
0 0 0 2 4 5 4 3 5 8 10 11 9 7 8 10 11 10 10 10 11 11 11 12 13 12 11 9 6 4 4 6 8 9 11 14 15 16 16 15 13 11 9 9
0 0 1 3 4 4 2 4 6 9 11 12 11 12 13 15 14 13 11 11 12 12 13 15 15 14 14 13 12 10 9 10 11 11 12 15 17 18 18 17 15 13 11 9
0 0 1 3 4 4 4 6 7 9 12 14 16 17 18 18 16 14 13 12 12 12 14 16 17 14 13 14 15 14 12 11 11 10 11 14 17 17 17 16 16 15 13 12
1 0 1 3 5 6 8 9 10 12 13 16 19 19 19 18 15 14 14 14 13 12 14 16 16 14 12 13 15 16 13 10 9 9 9 12 15 16 15 14 15 15 15 15
1 0 1 4 6 8 9 9 11 13 15 17 18 18 18 17 15 14 14 13 11 12 15 15 15 15 16 17 18 18 15 10 8 9 9 9 11 13 13 14 13 11 13 15
1 0 1 4 5 6 6 7 9 12 14 16 17 18 19 18 16 15 13 10 9 12 15 16 16 16 17 20 21 21 18 12 10 10 9 8 8 9 10 11 9 7 8 11
0 0 1 2 3 3 3 5 7 9 11 12 14 16 17 16 14 12 10 8 8 11 13 15 14 13 14 16 19 20 20 17 14 12 11 10 9 9 9 9 8 6 6 6
0 0 1 1 1 1 2 5 7 7 7 8 9 10 10 8 7 7 7 7 7 9 11 12 11 10 10 12 13 16 20 21 18 17 15 13 12 11 10 9 9 8 6 4
0 1 2 2 1 2 4 6 7 7 6 6 7 6 5 3 3 4 4 5 6 8 8 9 9 8 9 10 11 13 17 19 18 18 17 15 13 11 10 9 9 8 6 5
1 2 4 4 4 4 6 7 7 7 6 6 6 6 4 3 3 3 3 4 5 5 6 6 6 6 7 9 10 11 12 13 14 15 16 15 13 12 11 10 9 7 6 6
2 4 5 6 5 6 6 6 6 6 6 5 5 5 4 3 3 3 3 3 4 5 6 6 5 4 5 7 9 10 10 10 11 13 16 16 16 14 14 12 9 7 6 5
4 5 6 6 6 6 6 6 5 5 5 4 4 4 3 3 3 4 4 4 5 6 7 7 5 4 4 5 6 8 9 9 10 12 15 16 15 15 15 13 10 8 6 4
6 6 6 7 8 7 6 5 4 4 4 4 3 3 3 3 4 5 6 6 6 6 7 7 5 5 6 5 6 7 9 9 9 11 13 12 11 11 11 10 9 8 6 4
6 6 6 7 7 6 5 4 4 3 4 4 4 3 3 4 5 6 6 6 6 5 5 4 4 5 6 6 6 7 9 10 9 10 11 10 8 6 6 6 6 7 6 5
6 6 6 6 5 4 4 4 4 3 3 4 4 4 4 5 5 6 6 5 4 3 2 2 3 3 3 4 5 6 8 9 8 8 9 9 6 4 5 6 6 6 6 5
6 6 6 5 4 3 3 4 4 3 3 3 3 4 5 4 3 3 3 3 2 1 1 1 1 1 1 1 3 6 6 6 6 7 7 6 4 4 5 6 6 5 4 3
5 5 4 3 3 2 2 2 2 2 1 1 2 3 3 2 1 1 1 1 0 0 0 0 0 0 0 1 3 4 4 3 3 4 4 4 3 3 3 3 3 3 1 1
2 2 1 1 1 1 1 0 1 1 0 0 1 1 1 1 0 0 0 0 0 0 0 0 0 0 0 1 2 2 1 1 1 1 2 3 3 2 1 1 1 1 0 0
0 0 0 0 0 0 0 0 0 0 0 0 0 0 0 0 0 0 0 0 0 0 0 0 0 0 0 1 1 0 0 0 0 0 1 2 3 2 0 0 0 0 0 0
0 0 0 0 0 0 0 0 0 0 0 0 0 0 0 0 0 0 0 0 0 0 0 0 0 0 0 0 0 0 0 0 0 0 1 3 3 2 1 0 0 0 1 1
0 0 0 0 0 0 0 0 0 0 0 0 0 0 0 0 0 0 0 0 0 0 0 0 0 0 0 0 0 0 0 0 0 1 2 3 3 3 2 1 0 0 1 0
Wind_Speed
3 3 3 3 4 5 5 8 9 8 7 9 7 7 5 4 5 5 5 5 6 6 5 6 6 6 6 6 6 6 6 6 5 4 4 4 4 3 3 3 4 3 3 2
0 1 2 2 4 6 5 4 5 4 7 6 3 2 3 4 6 6 6 6 7 7 6 7 7 7 7 7 7 7 7 6 5 4 4 4 4 4 3 3 3 3 3 3
2 2 1 4 6 6 4 4 6 7 8 2 2 5 7 7 7 7 7 6 7 8 7 7 7 7 8 7 7 7 6 5 5 5 4 3 3 3 3 3 2 2 2 2
2 2 5 8 3 4 5 3 3 4 4 4 6 5 3 4 6 6 6 6 6 6 6 6 6 6 6 6 6 7 6 6 5 5 5 4 4 3 3 2 2 2 2 2
4 3 5 6 1 3 4 3 3 3 2 1 1 3 1 1 3 4 5 5 5 5 5 5 6 6 7 6 6 6 6 6 6 6 6 5 5 4 3 3 2 2 2 2
4 4 7 7 3 2 3 3 2 2 3 2 4 2 4 1 1 1 2 3 4 5 5 5 5 6 7 6 6 6 6 6 5 6 6 6 5 4 3 3 3 2 1 1
4 4 7 6 5 1 5 7 3 2 4 5 5 5 3 3 2 2 2 3 4 5 5 5 5 6 6 6 6 5 4 4 5 5 5 5 4 3 3 3 3 2 2 1
5 4 8 3 1 3 5 3 1 2 3 4 2 1 3 4 4 3 3 4 5 5 4 4 5 6 6 5 4 4 4 4 4 4 4 4 4 4 3 4 3 2 1 1
7 7 4 2 2 3 2 2 2 2 2 2 2 2 3 3 3 3 4 3 4 5 4 3 4 5 6 4 4 5 5 4 4 4 3 4 4 4 3 3 3 3 2 2
2 4 3 3 2 2 1 1 1 1 1 2 2 2 3 3 3 3 3 3 3 5 5 3 3 4 4 4 5 6 5 4 4 4 3 3 3 3 3 3 3 3 2 2
2 4 4 4 3 3 3 3 2 2 2 2 3 2 3 3 3 3 3 3 3 4 5 4 4 4 4 4 6 6 5 4 4 3 3 3 2 2 3 3 4 4 3 3
6 6 4 5 4 3 2 2 1 2 2 2 2 2 2 2 2 2 3 3 3 3 3 3 3 3 3 4 5 6 5 4 3 3 3 2 2 1 1 1 2 3 4 4
5 4 4 5 4 3 2 2 1 0 1 1 1 1 2 1 1 2 2 3 3 3 3 3 3 2 2 3 5 5 5 4 3 3 3 3 3 3 1 1 2 1 2 3
5 3 4 4 4 4 3 2 0 1 1 2 2 2 2 2 2 2 1 2 3 4 3 3 4 2 2 3 4 4 4 4 4 3 3 3 3 3 3 2 1 1 1 1
6 6 6 4 4 3 2 1 1 0 1 1 2 2 3 2 1 1 1 2 3 4 4 4 4 2 2 3 4 4 4 3 3 3 3 3 3 3 2 2 2 1 0 1
5 4 3 3 4 3 2 2 2 2 2 1 1 2 2 3 2 1 1 2 4 4 3 3 3 2 3 4 4 3 3 4 4 3 3 3 3 3 2 2 2 2 2 1
5 5 4 4 4 4 4 4 4 3 2 3 3 2 2 3 2 1 1 2 3 3 3 4 4 3 2 4 4 3 3 3 5 3 3 3 3 3 3 3 3 2 2 2
7 7 7 7 6 5 4 3 3 3 3 3 3 3 2 3 3 3 2 2 2 1 1 3 3 3 3 3 3 3 3 3 3 3 2 2 2 3 3 3 3 2 1 1
5 5 5 5 4 4 4 3 3 4 4 4 4 4 3 2 2 2 3 3 3 1 2 2 3 4 3 4 4 3 3 3 2 2 2 3 2 2 2 2 2 2 2 1
3 4 4 4 3 4 4 3 3 3 3 4 5 4 2 2 2 2 3 2 2 3 2 2 3 3 3 3 4 3 3 4 3 3 3 3 3 3 3 3 3 2 2 2
3 3 3 3 3 3 3 3 4 3 3 4 5 4 3 2 2 2 2 1 2 2 2 2 2 2 2 3 4 3 3 3 3 3 3 3 2 3 3 3 3 3 3 3
2 3 3 3 3 3 2 2 3 4 3 3 3 4 3 2 1 1 1 2 2 3 2 1 1 2 3 3 3 3 3 3 3 2 2 2 2 3 3 3 3 3 3 3
1 2 3 3 4 3 2 2 2 3 3 3 4 4 3 2 2 2 2 2 2 3 2 1 2 3 3 2 2 3 3 3 3 3 3 3 3 3 3 3 3 3 2 2
2 2 2 3 3 3 2 1 1 2 2 2 3 3 3 2 1 2 2 2 2 3 2 2 3 4 4 2 2 3 3 3 3 3 3 3 3 3 3 3 2 2 2 2
2 2 2 3 3 2 2 2 2 2 2 2 1 1 2 2 2 2 1 1 2 2 1 1 2 3 2 2 2 2 2 2 3 3 2 2 2 2 2 2 2 2 2 1
1 1 1 2 2 2 2 2 2 2 2 2 1 1 1 1 1 1 1 1 2 1 1 1 1 2 2 2 2 2 2 2 2 2 2 2 2 2 2 2 2 2 2 1
1 1 1 1 1 1 2 2 3 2 3 3 2 1 1 1 1 1 1 1 1 1 1 1 1 2 2 2 2 1 1 1 1 1 1 1 2 2 2 2 1 1 1 1
Wind_Direction
219 218 184 193 197 175 179 182 182 217 220 240 232 220 215 189 171 162 163 170 176 176 174 169 167 168 168 168 163 161 162 175 191 189 173 169 173 180 183 186 188 183 173 177
309 244 200 215 225 198 199 187 202 211 243 246 230 176 186 189 176 175 179 181 179 177 172 171 171 170 166 169 166 158 165 179 180 170 168 173 174 176 178 185 182 172 174 174
228 291 75 246 223 196 194 191 178 204 231 224 206 204 200 196 187 187 187 185 184 183 181 180 179 173 172 174 164 162 169 172 169 168 171 179 171 161 173 181 174 173 184 174
143 100 207 238 238 184 174 202 207 227 236 212 214 216 211 190 184 189 188 186 189 185 184 181 171 165 162 158 160 165 170 174 174 171 173 169 162 170 175 167 169 182 187 183
132 174 262 290 251 159 173 239 223 211 244 255 117 77 333 210 181 194 191 184 181 176 171 165 163 162 154 156 161 167 177 182 181 176 174 171 177 185 179 167 177 185 175 178
136 160 219 240 272 266 136 251 254 181 189 160 113 138 251 220 138 134 148 150 150 143 138 148 159 154 154 161 164 179 188 185 175 172 173 178 184 182 172 170 184 178 169 172
160 194 250 260 294 82 159 231 258 199 188 177 190 204 214 154 130 130 122 132 135 134 136 148 151 150 155 161 181 191 177 162 161 167 172 172 171 169 163 166 164 162 162 172
152 181 245 297 22 163 219 268 248 211 200 198 221 127 128 137 137 132 112 122 135 135 136 137 142 145 151 167 174 154 150 152 158 161 166 163 160 162 160 161 160 162 162 213
186 207 241 283 254 272 244 253 260 231 219 182 163 152 136 134 134 133 123 120 130 132 130 128 136 143 149 163 146 140 139 145 147 143 148 152 159 162 156 160 170 180 185 210
253 271 285 294 302 320 314 276 282 220 168 146 151 157 145 135 134 128 120 123 126 133 134 139 144 141 155 153 146 140 141 142 140 142 145 144 147 154 160 174 185 187 196 215
259 284 312 316 320 322 343 6 31 36 69 107 119 134 148 146 145 137 124 121 135 149 151 156 156 151 151 149 144 141 138 135 138 143 148 146 149 165 179 200 198 189 204 205
220 225 216 258 283 311 338 338 11 45 34 47 97 129 121 127 132 130 123 111 116 129 137 146 151 146 144 148 144 141 142 145 147 145 146 148 143 97 49 181 200 201 206 206
223 233 235 253 274 277 276 283 297 75 128 104 60 106 107 98 88 95 111 127 143 153 145 140 135 140 148 149 146 149 153 154 152 150 149 153 157 163 171 17 47 110 217 220
237 232 254 256 259 276 266 259 4 65 112 126 123 111 105 98 97 106 130 159 149 138 137 137 136 149 157 147 146 152 152 152 153 159 166 172 176 179 177 175 195 320 333 231
250 231 228 243 257 260 242 179 94 205 149 115 113 123 124 133 150 178 173 155 137 128 131 132 132 148 151 146 146 152 154 153 158 164 168 172 171 169 175 182 189 204 0 9
244 239 226 219 225 229 207 188 201 230 210 157 142 163 162 159 157 182 164 147 140 147 152 147 150 176 159 152 153 155 168 167 162 165 167 164 164 171 184 189 189 195 213 222
213 218 212 208 214 220 217 205 194 200 192 177 193 187 157 139 133 150 165 155 158 165 167 169 172 172 160 164 164 164 167 170 165 162 172 175 175 185 191 194 199 207 223 218
212 208 203 201 203 201 212 205 184 182 185 187 173 167 167 161 167 177 165 133 120 122 176 186 173 156 170 181 168 167 167 169 169 170 173 180 184 189 192 197 204 209 221 210
204 201 201 202 202 190 194 198 190 186 177 167 157 160 160 169 179 164 147 133 138 188 245 201 168 159 168 186 174 165 163 164 169 179 183 182 183 186 191 196 202 208 212 216
196 189 184 190 189 182 190 189 175 164 160 152 143 138 144 165 154 141 135 150 200 219 220 187 165 162 170 173 166 161 167 175 183 187 189 190 191 197 200 202 206 215 221 225
191 179 174 175 173 173 178 175 163 157 154 151 151 158 168 166 148 145 146 188 238 205 188 185 183 176 175 167 158 155 165 175 183 188 193 199 199 201 204 208 214 221 226 231
188 167 170 162 141 136 150 156 157 157 154 156 162 157 149 150 151 142 225 219 215 180 168 172 180 178 177 168 154 156 164 175 183 189 192 196 200 205 209 212 220 226 229 230
161 150 154 154 142 143 132 134 155 167 171 177 167 158 163 184 183 180 241 240 197 169 160 167 167 159 161 158 158 160 168 180 187 192 197 200 204 207 211 217 218 221 228 231
134 148 154 140 127 127 138 194 185 171 161 164 169 171 170 169 208 237 230 214 179 159 152 169 175 169 158 160 161 164 172 183 190 194 197 201 208 213 216 217 221 222 223 227
143 137 130 127 135 159 173 165 129 120 125 129 138 165 180 180 188 202 188 171 157 152 155 164 172 170 164 161 165 169 180 193 196 194 199 207 216 221 227 228 221 216 221 230
141 144 148 161 173 180 160 144 146 159 148 140 145 172 163 158 161 164 161 149 138 149 162 168 171 173 169 169 172 176 182 188 196 207 211 217 218 218 220 221 222 223 226 229
85 101 108 107 129 154 147 151 163 175 170 160 161 177 165 157 148 161 171 156 140 146 169 173 158 150 150 152 156 163 170 176 183 201 212 213 212 211 215 221 232 237 236 231